Temp
1 1 0 1 -1 -0 0 1 1 1 2 1 1 1 1 1 1 1 1 1 1 2 2 3 3 4 4
-0 -1 -1 -1 -0 -1 -0 1 1 2 0 1 1 1 0 1 1 1 1 1 1 1 1 2 2 3 3
-1 -1 -1 -1 -1 -0 0 -0 -0 -0 0 1 1 1 0 0 0 0 0 0 0 0 0 1 1 1 2
-1 -1 -1 -1 -1 -1 -1 -0 -0 0 -0 -0 -0 -0 -0 -0 0 -0 -0 -0 -0 0 0 0 0 0 1
-1 -1 -1 -1 -1 0 -0 -0 -0 -1 -1 -1 -1 -1 -1 -1 -1 -1 -1 -0 0 0 0 0 0 0 0
-0 -0 0 0 0 -0 -1 -2 -3 -1 -2 -2 -2 -2 -1 -1 -1 -1 -0 -0 -0 -0 -0 -0 -0 -0 -0
-1 -1 -1 -1 -1 -1 -2 -2 -3 -2 -3 -3 -2 -2 -1 -1 -1 -1 -1 -1 -1 -1 -1 -1 -1 -0 -0
-2 -2 -2 -2 -2 -2 -3 -3 -3 -3 -3 -3 -2 -2 -1 -2 -1 -2 -2 -2 -1 -1 -1 -1 -1 -1 -1
-2 -2 -3 -3 -3 -3 -3 -4 -4 -3 -3 -4 -3 -2 -2 -2 -1 -2 -2 -2 -3 -3 -2 -2 -1 -1 -1
-3 -3 -3 -3 -3 -3 -3 -4 -4 -4 -4 -4 -4 -5 -4 -4 -3 -3 -3 -3 -4 -4 -3 -3 -2 -2 -2
-3 -3 -3 -3 -3 -3 -3 -4 -4 -4 -5 -5 -5 -5 -5 -5 -5 -5 -5 -4 -5 -5 -5 -5 -4 -4 -3
-4 -4 -3 -3 -4 -4 -5 -5 -5 -5 -5 -6 -6 -6 -6 -6 -6 -5 -6 -6 -6 -6 -6 -5 -4 -4 -4
-4 -4 -4 -4 -5 -6 -6 -6 -6 -6 -6 -6 -6 -6 -6 -6 -6 -6 -5 -5 -5 -5 -5 -6 -5 -5 -5
-5 -5 -5 -6 -6 -6 -6 -6 -6 -6 -6 -6 -6 -5 -5 -6 -6 -6 -5 -5 -5 -5 -5 -5 -5 -4 -4
-6 -6 -6 -7 -7 -7 -7 -7 -7 -6 -6 -6 -5 -5 -5 -5 -5 -5 -5 -5 -5 -5 -5 -5 -4 -4 -4
-7 -7 -8 -7 -7 -7 -7 -7 -7 -7 -6 -6 -6 -5 -5 -5 -5 -5 -5 -5 -4 -4 -4 -4 -4 -4 -4
-7 -7 -7 -7 -7 -7 -7 -7 -7 -7 -6 -6 -6 -5 -5 -4 -3 -3 -3 -3 -4 -4 -4 -4 -5 -4 -4
Height
794 797 796 791 803 805 810 809 809 810 808 812 815 812 812 812 810 810 810 811 810 809 806 807 807 807 805
787 797 793 794 797 803 803 804 803 804 804 808 807 805 805 806 804 804 805 805 804 804 802 801 801 801 800
786 787 789 792 796 799 799 799 799 800 802 802 800 799 799 799 799 800 799 798 798 797 797 795 795 795 793
785 787 790 793 794 796 797 796 796 797 797 795 795 795 794 794 794 794 793 792 792 792 791 789 789 788 787
785 788 789 791 791 792 793 793 792 792 791 790 791 791 789 789 788 788 788 787 786 785 784 783 782 780 779
786 786 786 788 788 789 790 790 790 789 789 787 788 784 783 783 782 782 782 781 780 779 778 776 774 773 772
787 786 786 787 787 788 788 789 789 789 788 781 782 779 779 777 776 776 776 775 774 772 770 768 767 766 764
786 785 786 786 786 787 787 787 786 785 785 778 777 774 772 771 770 770 769 769 768 766 764 762 759 758 757
784 784 784 784 785 785 785 785 783 781 780 778 773 772 769 764 765 765 765 763 761 759 757 755 752 750 748
782 782 782 782 782 782 782 782 783 780 778 778 775 776 769 760 759 759 757 756 753 752 750 747 745 742 739
780 779 779 778 779 779 779 779 779 779 777 779 773 773 772 763 754 752 751 748 745 742 740 738 737 735 731
779 778 777 777 776 776 776 776 775 775 774 775 772 771 768 763 757 748 746 743 739 735 732 730 728 726 725
778 778 777 776 774 773 772 771 770 769 769 769 767 765 764 759 753 746 742 736 733 728 725 722 719 717 713
775 775 774 773 772 771 769 768 766 763 763 763 761 760 756 752 748 740 737 735 726 721 718 714 711 708 705
773 772 772 771 770 768 767 765 763 759 756 756 754 753 750 746 740 733 727 723 720 715 710 704 702 700 696
772 771 770 768 767 765 763 761 758 755 752 750 748 744 740 734 732 723 720 714 709 706 703 697 692 691 688
770 768 767 765 764 761 759 756 752 750 747 745 742 740 733 725 722 721 713 708 702 698 694 689 683 679 678
Wind_Speed
14 19 22 24 24 22 21 21 21 22 20 17 18 16 18 20 21 21 22 22 22 21 20 21 22 23 23
11 15 12 15 15 17 16 17 17 15 13 17 16 17 18 20 20 21 21 21 20 21 20 21 22 23 24
7 8 7 10 11 12 12 13 11 13 13 13 14 16 18 19 19 20 19 20 21 21 22 22 23 24 24
6 6 5 7 7 8 10 7 8 10 15 17 18 16 16 16 17 19 20 20 20 20 21 21 22 23 24
5 4 4 6 7 4 7 7 11 15 18 15 14 14 18 20 19 20 18 19 20 21 22 23 24 25 26
4 4 2 4 5 3 2 6 4 7 8 22 22 20 20 21 19 17 19 19 21 22 23 24 25 25 26
4 2 4 2 4 8 11 12 12 18 18 21 12 22 21 22 20 20 20 21 22 21 22 22 23 24 26
4 4 6 5 6 6 7 10 14 17 13 12 13 22 23 24 26 20 16 15 17 19 20 21 22 24 26
6 7 9 10 10 11 13 13 11 8 17 15 11 17 28 25 10 10 12 16 22 23 21 22 23 25 27
9 9 8 9 8 10 11 12 11 9 4 4 8 12 10 12 9 18 24 28 22 23 24 23 23 24 25
7 7 6 7 8 8 9 11 14 15 14 14 11 17 10 13 22 24 27 29 32 31 25 23 21 19 23
7 8 8 9 10 12 13 14 17 21 23 20 16 19 19 22 19 24 30 31 30 31 28 23 22 22 23
9 9 9 10 12 15 15 15 17 19 20 21 23 26 25 24 25 31 28 32 32 22 29 30 31 30 30
11 11 14 13 13 13 15 16 19 21 17 18 20 21 26 26 27 30 29 19 30 34 33 32 33 34 34
11 12 12 12 13 13 15 17 18 20 20 19 18 20 24 27 29 31 31 29 29 32 33 31 29 31 33
12 13 14 15 17 19 18 18 18 20 21 20 22 20 22 27 27 33 30 30 31 28 27 27 30 27 30
15 17 17 18 18 20 20 18 19 20 22 22 20 19 10 11 25 22 28 28 31 29 29 29 29 31 28
Wind_Direction
203 211 199 204 215 226 239 249 258 267 274 272 271 279 282 282 285 287 288 286 283 281 280 279 279 278 278
177 197 196 212 228 238 250 263 269 274 265 266 275 282 286 287 287 286 285 283 283 281 280 279 279 279 278
149 175 194 210 227 249 258 268 273 274 272 278 284 287 287 288 288 285 284 283 282 281 280 279 278 277 277
109 143 182 216 236 261 264 273 277 275 282 289 290 288 287 289 287 287 287 286 284 282 281 280 278 277 277
132 169 193 200 216 264 248 285 287 289 298 290 297 286 283 294 292 290 289 289 286 283 282 280 279 277 276
182 198 218 273 268 248 290 324 326 308 310 295 300 296 298 300 301 294 294 291 288 286 283 281 280 278 278
239 255 318 339 295 294 304 294 278 290 303 296 302 298 303 305 299 294 294 293 290 288 286 283 281 279 277
263 267 273 282 288 286 292 290 286 291 298 280 304 299 311 308 305 298 295 297 299 296 294 289 285 283 279
289 286 284 280 274 276 277 293 304 301 299 286 307 308 307 307 312 309 299 300 301 298 295 290 289 287 283
293 281 273 279 275 267 273 271 279 317 60 323 297 327 317 298 279 304 310 314 305 300 297 294 292 290 285
292 293 294 291 288 280 279 272 263 258 266 302 292 311 295 296 308 306 314 316 311 311 306 300 295 288 286
302 309 309 302 294 284 282 275 262 263 269 274 277 285 287 291 293 302 308 307 311 309 308 311 302 295 287
313 315 307 298 294 296 291 292 287 284 281 278 274 281 276 273 279 290 299 301 300 302 307 301 303 306 297
302 305 304 307 302 298 293 291 287 286 281 276 282 283 276 271 272 280 288 283 293 296 295 295 297 300 294
301 303 300 302 300 301 296 293 283 286 288 285 289 286 284 284 278 278 283 284 282 284 287 285 284 284 288
298 299 299 301 301 303 303 296 286 287 289 289 290 291 285 281 266 269 275 277 283 283 283 279 285 285 282
300 301 301 298 298 295 295 289 284 283 286 288 288 286 283 283 294 285 279 285 288 287 284 279 279 283 284